{"data":{"norad_id":45190,"intl_designator":"2020-012N","name":"STARLINK-1234","alt_names":[],"object_type":"PAYLOAD","status":"ACTIVE","operator":null,"country":"US","launch_date":"2020-02-17","launch_site_code":"AFETR","launch_vehicle":null,"mission":null,"orbit_class":"UNKNOWN","rcs_meters":null,"size_class":null,"mass_kg":null,"dimensions":null,"purposes":["comms"],"wikipedia_slug":null,"has_3d_model":false,"image_url":null,"decayed_at":null,"tle_current":{"epoch":"2026-09-13T21:03:24.089760Z","epoch_age_seconds":586666,"freshness":"STALE","line1":"1 45190U 20012N   26256.87736215  .04570326  12224-4  59879-3 0  9997","line2":"2 45190  53.0136  99.6063 0008149 279.5062  80.5060 16.34760025365642","mean_motion":16.34760025,"eccentricity":0.0008149,"inclination_deg":53.0136,"raan_deg":99.6063,"arg_perigee_deg":279.5062,"mean_anomaly_deg":80.506,"bstar":0.00059879,"rev_number":36564,"period_min":88.086323251023,"perigee_km":174.4347370244,"apogee_km":185.12282816687,"semimajor_km":6557.9157825956,"source":"CELESTRAK","updated_at":"2026-09-14T09:00:48.082274Z"}}}